Location: Unspecified
(40.7945°N, 0.0000°E)
Time: 18:59:28
(UTC+00:00)

Explorer 7 - Pass Details

Date: 20 June 2021
Orbit: 484 x 676 km, 50.3° (Epoch: 28 July)

Event Time Altitude Azimuth Distance (km) Brightness Sun altitude
Rises 22:16:18 0° 272° (W) 3,023 11.0 -21.3°
Reaches altitude 10° 22:18:55 10° 282° (WNW) 2,104 10.3 -21.5°
Maximum altitude 22:23:15 31° 345° (NNW) 1,156 9.1 -21.8°
Drops below altitude 10° 22:27:30 10° 48° (NE) 2,050 9.9 -22.1°
Sets 22:30:01 0° 59° (ENE) 2,933 10.6 -22.3°
